Regional Weather Roundup
Issued by NWS Huntsville, AL

Home | Current Version | Previous Version | Text Only | Print | Product List | Glossary On
Versions: 1 2 3 4 5 6 7 8 9 10 11 12 13 14 15 16 17 18 19 20 21 22 23 24 25 26 27 28 29 30 31 32 33 34 35 36 37 38 39 40 41 42 43 44 45 46 47 48 49 50
000
ASUS44 KHUN 261310
RWRHUN

WEATHER ROUNDUP FOR THE TENNESSEE VALLEY
NATIONAL WEATHER SERVICE HUNTSVILLE AL
800 AM CDT WED APR 26 2017

ALZ001>004-261400-
NORTHWEST ALABAMA

CITY           SKY/WX    TMP DP  RH WIND       PRES   REMARKS
COURTLAND HCN    N/A     61 N/A N/A CALM        N/A
RUSSELLVILLE     N/A     61 N/A N/A MISG        N/A
SHOALS AIRPORT SUNNY     64  58  80 S7        29.79R
SHOALS TVA RES   N/A     63 N/A N/A MISG        N/A
$$

ALZ005>007-016-261400-
NORTH CENTRAL ALABAMA

CITY           SKY/WX    TMP DP  RH WIND       PRES   REMARKS
CULLMAN AG STN   N/A     61 N/A N/A CALM        N/A
DECATUR AP     SUNNY     63  60  90 S9        29.80R
HUNTSVILLE AP  MOSUNNY   65  60  84 S7        29.80R
MERIDIANVILLE  SUNNY     63  55  77 CALM      29.81S
REDSTONE ARSN  SUNNY     63  59  87 S7        29.80R
VINEMONT AP    FAIR      62  58  85 S6        29.84R
$$

ALZ008>010-261400-
NORTHEAST ALABAMA

CITY           SKY/WX    TMP DP  RH WIND       PRES   REMARKS
ALBERTVILLE    MOSUNNY   61  61 100 SW5       29.83R
FORT PAYNE     SUNNY     57  54  88 CALM      29.84S
SCOTTSBORO AP  SUNNY     61  59  94 CALM      29.84R
SCOTTSBORO HCN   N/A     57 N/A N/A MISG        N/A
VALLEY HEAD      N/A     54 N/A N/A MISG        N/A
$$

TNZ076-096-097-261400-
SOUTHEASTERN MIDDLE TENNESSEE

CITY           SKY/WX    TMP DP  RH WIND       PRES   REMARKS
TULLAHOMA      SUNNY     61  57  88 S5        29.82R
WINCHESTER     SUNNY     66  57  72 S3        29.82S
$$

...SURROUNDING SITES...

CITY           SKY/WX    TMP DP  RH WIND       PRES   REMARKS
ATLANTA        MOSUNNY   64  57  78 W10       29.85R
ANNISTON       SUNNY     63  59  87 CALM      29.85R
BIRMINGHAM     PTSUNNY   65  58  78 SW6       29.85R
CHATTANOOGA    MOSUNNY   63  57  81 CALM      29.84R
CORINTH        FAIR      64  57  77 S13       29.73F
DALTON         SUNNY     59  59 100 CALM      29.86R
GADSDEN        SUNNY     62  58  86 CALM      29.85R
GOLDEN TRNGL   SUNNY     63  57  82 SE9       29.74R
HALEYVILLE     FAIR      61  58  90 S9        29.81R
JACKSON TN     SUNNY     66  59  78 S10       29.69R
MEMPHIS        MOSUNNY   67  60  78 S14       29.66F
NASHVILLE      MOSUNNY   65  58  78 S10       29.77R
OXFORD MS      PTSUNNY   63  57  82 SE9       29.74S
ROME           SUNNY     60  56  86 CALM      29.85R
SAVANNAH       MOSUNNY   66  59  77 S7        29.74S
TUPELO         PTSUNNY   63  57  81 SE7       29.75R
TUSCALOOSA     SUNNY     63  59  87 S7        29.81R
$$

...GULF COAST WEATHER...

CITY           SKY/WX    TMP DP  RH WIND       PRES   REMARKS
GULFPORT       PTSUNNY   72  62  71 S9G17     29.76R
PASCAGOULA     MOSUNNY   72  60  66 S8        29.77R
MOBILE         MOSUNNY   67  60  78 SE8       29.78R
GULF SHORES    MOSUNNY   72  60  67 S13       29.79R
PENSACOLA      MOSUNNY   73  58  59 S14       29.79R
DESTIN         MOSUNNY   74  60  61 S8        29.81R
PANAMA CITY    MOSUNNY   73  57  57 S12       29.84R
APPALACHICOLA  SUNNY     75  58  55 SW10      29.83R
$$




USA.gov is the U.S. government's official web portal to all federal, state and local government web resources and services.